When you browse on this site, cookies collect data to enhance your experience and personalize the content and advertising you see.
Visit our Privacy Policy to learn more. By continuing to use the site, you agree to this use of cookies and data.
  • In Austria
  • List of Countries
  • For 7 days
  • Water Temperature
  • Weather Map
  • News
  • Weather Widgets
  • user-avatar
    Login

    Hourly Weather Riquewihr

    Today, 11 December, Wednesday

    Time Temperature Precipitation Wind Pressure Humidity
    00:00 -1°C° 0 mm 2 mps 735 mmHg 76%
    01:00 +1°C° 0 mm 2 mps 734 mmHg 74%
    02:00 +1°C° 0 mm 2 mps 733 mmHg 71%
    03:00 +2°C° 0 mm 2 mps 733 mmHg 69%
    04:00 +2°C° 0.1 mm 2 mps 732 mmHg 69%
    05:00 +2°C° 0.1 mm 2 mps 732 mmHg 70%
    06:00 +2°C° 0.1 mm 2 mps 731 mmHg 71%
    07:00 +3°C° 0.4 mm 2 mps 731 mmHg 75%
    08:00 +3°C° 0.4 mm 2 mps 730 mmHg 79%
    09:00 +2°C° 0.4 mm 3 mps 730 mmHg 83%
    10:00 +2°C° 0.4 mm 3 mps 729 mmHg 85%
    11:00 +2°C° 0.4 mm 3 mps 728 mmHg 87%
    12:00 +3°C° 0.4 mm 3 mps 728 mmHg 89%
    13:00 +3°C° 0.6 mm 3 mps 727 mmHg 91%
    14:00 +3°C° 0.6 mm 3 mps 727 mmHg 92%
    15:00 +3°C° 0.6 mm 4 mps 727 mmHg 93%
    16:00 +3°C° 0.4 mm 4 mps 727 mmHg 93%
    17:00 +1°C° 0.4 mm 4 mps 727 mmHg 93%
    18:00 +1°C° 0.4 mm 4 mps 728 mmHg 93%
    19:00 +2°C° 0.1 mm 3 mps 727 mmHg 93%
    20:00 +2°C° 0.1 mm 3 mps 727 mmHg 92%
    21:00 +2°C° 0.1 mm 3 mps 727 mmHg 91%
    22:00 +2°C° 0.2 mm 3 mps 726 mmHg 91%
    23:00 +2°C° 0.2 mm 3 mps 726 mmHg 92%

    Tomorrow, 12 December, Thursday

    Time Temperature Precipitation Wind Pressure Humidity
    00:00 +1°C° 0.2 mm 3 mps 726 mmHg 92%
    01:00 +1°C° 0.3 mm 3 mps 726 mmHg 92%
    02:00 +1°C° 0.3 mm 3 mps 725 mmHg 93%
    03:00 0°C° 0.3 mm 4 mps 725 mmHg 94%
    04:00 0°C° 0.7 mm 4 mps 725 mmHg 94%
    05:00 0°C° 0.7 mm 4 mps 726 mmHg 95%
    06:00 -1°C° 0.7 mm 4 mps 726 mmHg 95%
    07:00 0°C° 0.3 mm 4 mps 726 mmHg 93%
    08:00 0°C° 0.3 mm 4 mps 727 mmHg 92%
    09:00 0°C° 0.3 mm 4 mps 727 mmHg 91%
    10:00 0°C° 0.1 mm 4 mps 726 mmHg 86%
    11:00 +1°C° 0.1 mm 4 mps 726 mmHg 82%
    12:00 +1°C° 0.1 mm 4 mps 726 mmHg 77%
    13:00 +1°C° 0 mm 4 mps 725 mmHg 80%
    14:00 +1°C° 0 mm 3 mps 724 mmHg 82%
    15:00 +1°C° 0 mm 3 mps 723 mmHg 85%
    16:00 0°C° 0 mm 3 mps 723 mmHg 86%
    17:00 -1°C° 0 mm 2 mps 722 mmHg 87%
    18:00 -1°C° 0 mm 2 mps 721 mmHg 89%
    19:00 -1°C° 0 mm 3 mps 719 mmHg 87%
    20:00 0°C° 0 mm 3 mps 717 mmHg 85%
    21:00 0°C° 0 mm 3 mps 716 mmHg 82%
    22:00 0°C° 1.3 mm 4 mps 714 mmHg 86%
    23:00 0°C° 1.3 mm 5 mps 713 mmHg 89%

    Day after tomorrow, 13 December, Friday

    Time Temperature Precipitation Wind Pressure Humidity
    00:00 +1°C° 1.3 mm 6 mps 712 mmHg 93%
    01:00 +1°C° 1.4 mm 6 mps 711 mmHg 93%
    02:00 +2°C° 1.4 mm 6 mps 709 mmHg 93%
    03:00 +2°C° 1.4 mm 6 mps 708 mmHg 94%
    04:00 +2°C° 1.9 mm 6 mps 708 mmHg 92%
    05:00 +2°C° 1.9 mm 6 mps 709 mmHg 91%
    06:00 +2°C° 1.9 mm 6 mps 709 mmHg 90%
    07:00 +2°C° 0.3 mm 6 mps 709 mmHg 88%
    08:00 +2°C° 0.3 mm 6 mps 710 mmHg 87%
    09:00 +2°C° 0.3 mm 6 mps 710 mmHg 86%
    10:00 +2°C° 0.4 mm 6 mps 710 mmHg 86%
    11:00 0°C° 0.4 mm 7 mps 711 mmHg 86%
    12:00 0°C° 0.4 mm 7 mps 712 mmHg 87%
    13:00 +1°C° 0.4 mm 6 mps 712 mmHg 87%
    14:00 +1°C° 0.4 mm 6 mps 713 mmHg 87%
    15:00 +1°C° 0.4 mm 6 mps 714 mmHg 87%
    16:00 +1°C° 0.1 mm 6 mps 715 mmHg 87%
    17:00 0°C° 0.1 mm 7 mps 715 mmHg 87%
    18:00 0°C° 0.1 mm 7 mps 716 mmHg 87%
    19:00 0°C° 0.1 mm 7 mps 717 mmHg 88%
    20:00 +1°C° 0.1 mm 6 mps 718 mmHg 90%
    21:00 +1°C° 0.1 mm 6 mps 718 mmHg 91%
    22:00 +1°C° 0 mm 6 mps 718 mmHg 90%
    23:00 +1°C° 0 mm 6 mps 719 mmHg 89%

    14 December, Saturday

    Time Temperature Precipitation Wind Pressure Humidity
    00:00 +1°C° 0 mm 5 mps 719 mmHg 88%
    01:00 +1°C° 0.6 mm 6 mps 718 mmHg 90%
    02:00 +2°C° 0.6 mm 6 mps 718 mmHg 91%
    03:00 +2°C° 0.6 mm 6 mps 718 mmHg 92%
    04:00 +3°C° 0.5 mm 6 mps 718 mmHg 92%
    05:00 +3°C° 0.5 mm 6 mps 718 mmHg 92%
    06:00 +4°C° 0.5 mm 6 mps 718 mmHg 92%
    07:00 +6°C° 1.6 mm 5 mps 718 mmHg 93%
    08:00 +6°C° 1.6 mm 5 mps 719 mmHg 93%
    09:00 +7°C° 1.6 mm 5 mps 719 mmHg 94%
    10:00 +7°C° 1 mm 5 mps 720 mmHg 93%
    11:00 +7°C° 1 mm 5 mps 720 mmHg 93%
    12:00 +8°C° 1 mm 5 mps 720 mmHg 93%
    13:00 +8°C° 0.4 mm 5 mps 720 mmHg 90%
    14:00 +8°C° 0.4 mm 6 mps 720 mmHg 88%
    15:00 +9°C° 0.4 mm 6 mps 721 mmHg 86%
    16:00 +8°C° 0.4 mm 6 mps 721 mmHg 86%
    17:00 +8°C° 0.4 mm 6 mps 722 mmHg 86%
    18:00 +8°C° 0.4 mm 6 mps 723 mmHg 86%
    19:00 +7°C° 0.4 mm 5 mps 723 mmHg 87%
    20:00 +7°C° 0.4 mm 5 mps 723 mmHg 88%
    21:00 +7°C° 0.4 mm 4 mps 724 mmHg 89%
    22:00 +6°C° 1 mm 4 mps 724 mmHg 91%
    23:00 +7°C° 1 mm 3 mps 724 mmHg 92%

    15 December, Sunday

    Time Temperature Precipitation Wind Pressure Humidity
    00:00 +7°C° 1 mm 2 mps 724 mmHg 94%
    01:00 +7°C° 0.7 mm 3 mps 723 mmHg 93%
    02:00 +7°C° 0.7 mm 4 mps 723 mmHg 93%
    03:00 +7°C° 0.7 mm 4 mps 722 mmHg 93%
    04:00 +8°C° 0.3 mm 5 mps 722 mmHg 90%
    05:00 +8°C° 0.3 mm 6 mps 722 mmHg 86%
    06:00 +8°C° 0.3 mm 7 mps 722 mmHg 83%
    07:00 +7°C° 0.3 mm 8 mps 722 mmHg 82%
    08:00 +7°C° 0.3 mm 8 mps 723 mmHg 81%
    09:00 +9°C° 0.3 mm 8 mps 724 mmHg 80%
    10:00 +8°C° 1 mm 7 mps 725 mmHg 82%
    11:00 +7°C° 1 mm 6 mps 726 mmHg 84%
    12:00 +7°C° 1 mm 5 mps 726 mmHg 86%
    13:00 +7°C° 0.2 mm 4 mps 727 mmHg 86%
    14:00 +6°C° 0.2 mm 4 mps 727 mmHg 86%
    15:00 +7°C° 0.2 mm 3 mps 728 mmHg 86%
    16:00 +7°C° 0 mm 3 mps 728 mmHg 88%
    17:00 +7°C° 0 mm 2 mps 729 mmHg 90%
    18:00 +7°C° 0 mm 2 mps 729 mmHg 92%
    19:00 +6°C° 0.1 mm 2 mps 729 mmHg 91%
    20:00 +6°C° 0.1 mm 2 mps 730 mmHg 91%
    21:00 +6°C° 0.1 mm 2 mps 730 mmHg 91%
    22:00 +6°C° 0 mm 2 mps 730 mmHg 91%
    23:00 +6°C° 0 mm 2 mps 730 mmHg 91%

    16 December, Monday

    Time Temperature Precipitation Wind Pressure Humidity
    00:00 +6°C° 0 mm 2 mps 730 mmHg 91%
    01:00 +7°C° 0 mm 1 mps 730 mmHg 90%
    02:00 +7°C° 0 mm 1 mps 730 mmHg 90%
    03:00 +7°C° 0 mm 1 mps 730 mmHg 90%
    04:00 +7°C° 0 mm 1 mps 730 mmHg 90%
    05:00 +7°C° 0 mm 1 mps 730 mmHg 89%
    06:00 +6°C° 0 mm 0 mps 730 mmHg 89%
    07:00 +6°C° 0 mm 0 mps 730 mmHg 89%
    08:00 +8°C° 0 mm 1 mps 730 mmHg 89%
    09:00 +8°C° 0 mm 1 mps 730 mmHg 88%
    10:00 +8°C° 0 mm 1 mps 729 mmHg 87%
    11:00 +9°C° 0 mm 1 mps 729 mmHg 85%
    12:00 +9°C° 0 mm 1 mps 728 mmHg 84%
    13:00 +9°C° 0 mm 1 mps 728 mmHg 85%
    14:00 +9°C° 0 mm 1 mps 728 mmHg 87%
    15:00 +8°C° 0 mm 1 mps 728 mmHg 89%
    16:00 +8°C° 0 mm 1 mps 727 mmHg 87%
    17:00 +7°C° 0 mm 1 mps 727 mmHg 86%
    18:00 +7°C° 0 mm 1 mps 727 mmHg 85%
    19:00 +7°C° 0 mm 1 mps 727 mmHg 83%
    20:00 +6°C° 0 mm 2 mps 727 mmHg 81%
    21:00 +6°C° 0 mm 2 mps 727 mmHg 79%
    22:00 +6°C° 0 mm 2 mps 727 mmHg 79%
    23:00 +6°C° 0 mm 2 mps 727 mmHg 79%
    Show more